C/2016 E2 ( Kowalski )

Japanese version
Home page
Updated on May 29, 2016

---------------------------------------------------------------------

* Profile

Discovery Date March 15, 2016
Magnitude 17.7 mag
Discoverer R. A. Kowalski (Catalina Sky Survey)

* Pictures

* Orbital Elements

T 2016 Feb. 6.68756 TT                                  MPCW
q   1.0754879            (2000.0)            P               Q
                   Peri.  321.98356     -0.73108457     -0.67750580
                   Node   186.66550     -0.31744926     +0.23316390
e   1.0            Incl.  136.00040     -0.60393817     +0.69758189
From 89 observations 2016 Mar. 15-18.

* Magnitudes Graph

        m1 = 19.0 + 5 log d + 10.0 log r

---------------------------------------------------------------------

The orbital elements are published on M.P.E.C. 2016-F43.
The magnitudes graphs are made with Comet for Windows.

---------------------------------------------------------------------

Copyright(C) Seiichi Yoshida (comet@aerith.net). All rights reserved.